Palm Springs, CA

11:40 AM PDT on April 24, 2017 (GMT -0700)
Palm Springs International

Weather History for KPSP - September, 2012

Change the Weather History Date:

Friday, September 14, 2012

  Actual Average Record
Temperature  
Mean Temperature 92 °F 87 °F  
Max Temperature 105 °F 101 °F 114 °F (1971)
Min Temperature 79 °F 73 °F 49 °F (1941)
Degree Days  
Heating Degree Days 0 0  
Month to date heating degree days 0 0  
Since 1 July heating degree days 0 0  
Cooling Degree Days 27 22  
Month to date cooling degree days 372 335  
Year to date cooling degree days 3790 3419  
Growing Degree Days 42 (Base 50)    
Moisture  
Dew Point 40 °F    
Average Humidity 17    
Maximum Humidity 23    
Minimum Humidity 10    
Precipitation  
Precipitation 0.00 in 0.02 in 0.03 in (1969)
Month to date precipitation 0.01 0.24  
Year to date precipitation 1.82 3.77  
Since 1 July precipitation 1.03  
Snow  
Snow 0.00 in - - ()
Month to date snowfall 0.0  
Year to date snowfall 0.0  
Snow Depth 0.00 in    
Sea Level Pressure  
Sea Level Pressure 29.95 in    
Wind  
Wind Speed 6 mph (ENE)    
Max Wind Speed 13 mph    
Max Gust Speed 16 mph    
Visibility 10 miles    
Events      
T = Trace of Precipitation, MM = Missing Value Source: NWS Daily Summary

Daily Weather History Graph

Daily Weather History Graph

Search for Another Location

Airport or City:

Trip Planner

Search our weather history database for the weather conditions in past years. The results will help you decide how hot, cold, wet, or windy it might be!

Date:

Astronomy

Sep. 14, 2012 Rise Set
Actual Time 6:29 AM PDT 6:53 PM PDT
Civil Twilight 6:04 AM PDT 7:18 PM PDT
Nautical Twilight 5:34 AM PDT 7:47 PM PDT
Astronomical Twilight 5:04 AM PDT 8:17 PM PDT
Moon 5:00 AM PDT (9/14) 5:52 PM PDT (9/14)
Length of Visible Light 13h 14m
Length of Day
12h 24m
Waning Crescent, 2% of the Moon is Illuminated
Sep 14
Waning Crescent
Sep 15
New
Sep 22
First Quarter
Sep 29
Full
Oct 8
Last Quarter

Hourly Weather History & Observations

Time (PDT) Temp. Dew Point Humidity Pressure Visibility Wind Dir Wind Speed Gust Speed Precip Events Conditions
12:53 AM 89.1 °F 34.0 °F 14% 29.94 in 10.0 mi West 8.1 mph - N/A   Clear
1:53 AM 88.0 °F 34.0 °F 15% 29.93 in 10.0 mi West 3.5 mph - N/A   Clear
2:53 AM 86.0 °F 36.0 °F 17% 29.93 in 10.0 mi NNE 5.8 mph - N/A   Clear
3:53 AM 84.9 °F 36.0 °F 17% 29.94 in 10.0 mi North 4.6 mph - N/A   Clear
4:53 AM 84.0 °F 36.0 °F 18% 29.94 in 10.0 mi WNW 5.8 mph - N/A   Clear
5:53 AM 81.0 °F 39.0 °F 22% 29.96 in 10.0 mi NNW 4.6 mph - N/A   Clear
6:53 AM 82.9 °F 41.0 °F 23% 29.98 in 10.0 mi NNW 5.8 mph - N/A   Clear
7:53 AM 86.0 °F 39.9 °F 20% 29.99 in 10.0 mi NW 3.5 mph - N/A   Clear
8:53 AM 91.9 °F 39.9 °F 16% 30.01 in 10.0 mi Calm Calm - N/A   Clear
9:53 AM 98.1 °F 45.0 °F 16% 30.01 in 10.0 mi SSE 8.1 mph - N/A   Clear
10:53 AM 99.0 °F 44.1 °F 15% 30.02 in 10.0 mi SSE 5.8 mph - N/A   Clear
11:53 AM 100.0 °F 45.0 °F 15% 30.01 in 10.0 mi SE 8.1 mph - N/A   Clear
12:53 PM 102.0 °F 45.0 °F 14% 29.99 in 10.0 mi ESE 8.1 mph - N/A   Partly Cloudy
1:53 PM 104.0 °F 43.0 °F 13% 29.96 in 10.0 mi Variable 3.5 mph - N/A   Clear
2:53 PM 102.9 °F 37.9 °F 11% 29.93 in 10.0 mi ESE 5.8 mph - N/A   Clear
3:53 PM 104.0 °F 37.0 °F 10% 29.91 in 10.0 mi SSE 9.2 mph - N/A   Clear
4:53 PM 102.9 °F 37.0 °F 10% 29.90 in 10.0 mi South 4.6 mph - N/A   Clear
5:53 PM 102.9 °F 37.9 °F 11% 29.90 in 10.0 mi SE 9.2 mph - N/A   Clear
6:53 PM 99.0 °F 37.9 °F 12% 29.90 in 10.0 mi SE 4.6 mph - N/A   Clear
7:53 PM 96.1 °F 43.0 °F 16% 29.91 in 10.0 mi ENE 4.6 mph - N/A   Clear
8:53 PM 95.0 °F 37.9 °F 14% 29.93 in 10.0 mi Calm Calm - N/A   Clear
9:53 PM 91.0 °F 41.0 °F 17% 29.94 in 10.0 mi NNW 6.9 mph - N/A   Clear
10:53 PM 88.0 °F 41.0 °F 19% 29.95 in 10.0 mi NW 3.5 mph - N/A   Clear
11:53 PM 86.0 °F 41.0 °F 20% 29.95 in 10.0 mi NNW 8.1 mph - N/A   Clear